アトラス彗星

C/2019 E3 ( ATLAS )

English version
Home page
Updated on March 26, 2020

---------------------------------------------------------------------

・ プロフィール

発見日 2019年3月5日
発見光度 18.4等
発見者 Asteroid Terrestrial-Impact Last Alert System (ATLAS) search program

・ 軌道要素

Epoch 2023 Dec. 2.0 TT = JDT 2460280.5
T 2023 Nov. 15.25842 TT                                 Rudenko
q  10.3128668            (2000.0)            P               Q
z  +0.0001227      Peri.  280.69965     +0.15950016     +0.96239746
 +/-0.0000022      Node   347.23332     +0.26394232     -0.25620445
e   0.9987345      Incl.   84.29886     -0.95125924     +0.09027964
From 69 observations 2015 Jan. 22-2020 Feb. 24, mean residual 0".4.

・ 光度変化

        m1 = 2.5 + 5 logΔ + 10.0 log r

---------------------------------------------------------------------

軌道要素はM.P.E.C. 2020-F67に掲載されたものです。
光度グラフはComet for Windowsで作成したものです。

---------------------------------------------------------------------

Copyright(C) Seiichi Yoshida (comet@aerith.net). All rights reserved.